Location: Vista Encantada
(35.1109°N, 106.5681°W)
Time: 09:27:24
(UTC+00:00)

CZ-4B R/B - Pass Details

Date: 29 October 2020
Orbit: 489 x 649 km, 97.9° (Epoch: 04 December)

Event Time Altitude Azimuth Distance (km) Brightness Sun altitude
Rises 12:26:01 0° 8° (N) 2,781 6.4 -12.7°
Reaches altitude 10° 12:28:08 10° 5° (N) 1,905 5.5 -12.2°
Maximum altitude 12:32:14 63° 284° (WNW) 674 3.0 -11.4°
Drops below altitude 10° 12:36:29 10° 204° (SSW) 1,981 5.5 -10.5°
Sets 12:38:44 0° 201° (SSW) 2,903 6.4 -10.1°
